Location: Cardiff
(53.7833°N, 113.6000°W)
Time: 19:40:36
(UTC+00:00)

RS-15 - Pass Details

Date: 10 December 2023
Orbit: 1893 x 2151 km, 64.8° (Epoch: 24 February)

Event Time Altitude Azimuth Distance (km) Brightness Sun altitude
Rises 05:40:57 0° 250° (WSW) 5,637 10.6 -53.2°
Reaches altitude 10° 05:44:32 10° 254° (WSW) 4,615 10.1 -53.6°
Enters shadow 05:50:10 32° 268° (W) 3,143 9.1 -54.1°
Exits shadow 06:10:58 - 58° (ENE) 5,331 10.3 -55.9°
Sets 06:11:10 0° 59° (ENE) 5,391 10.4 -56.0°
